Regional Weather Roundup
Issued by NWS

Home | Current Version | Previous Version | Text Only | Print | Product List | Glossary On
Versions: 1 2 3 4 5 6 7 8 9 10 11 12 13 14 15 16 17 18 19 20 21 22 23 24 25 26 27 28 29 30 31 32 33 34 35 36 37 38 39 40 41 42 43 44 45 46 47 48 49 50
000
ASUS43 KOAX 122010
RWRNE

WEATHER ROUNDUP FOR NEBRASKA
NATIONAL WEATHER SERVICE OMAHA NE
300 PM CDT SAT JUL 12 2014

NOTES: SATELLITE DATA IS BEING USED TO AUGMENT CLOUD COVER ABOVE
       12000 FEET.
       "FAIR" INDICATES FEW OR NO CLOUDS BELOW 12,000 FEET WITH NO
       SIGNIFICANT WEATHER AND/OR OBSTRUCTIONS TO VISIBILITY.

  * THESE STATIONS DO NOT REPORT WEATHER SUCH AS RAIN...SNOW OR FOG.

NEZ001>004-019>022-054>056-122100-
NEBRASKA PANHANDLE

CITY           SKY/WX    TMP DP  RH WIND       PRES   REMARKS
SCOTTSBLUFF    MOSUNNY   78  62  57 VRB7      30.23S
ALLIANCE       PTSUNNY   78  59  51 VRB5      30.21S
CHADRON        MOSUNNY   80  59  48 S6        30.17F
KIMBALL        MOSUNNY   76  60  57 N7        30.25S
SIDNEY         PTSUNNY   78  61  55 N12G17    30.24S
$$

NEZ057>060-069>072-079>082-122100-
SOUTHWEST NEBRASKA

CITY           SKY/WX    TMP DP  RH WIND       PRES   REMARKS
NORTH PLATTE   PTSUNNY   82  65  56 NE13      30.10R
IMPERIAL       MOSUNNY   84  66  54 N10       30.14S
LEXINGTON      CLOUDY    77  69  75 N12       30.08S
MCCOOK         MOSUNNY   85  69  58 NE10      30.07F
OGALLALA       PTSUNNY   80  62  54 NE10G16   30.15R
$$

NEZ005>010-023>029-035>040-094-122100-
NORTH CENTRAL NEBRASKA

CITY           SKY/WX    TMP DP  RH WIND       PRES   REMARKS
VALENTINE      MOSUNNY   79  67  66 NW7       30.12F
AINSWORTH      PTSUNNY   78  65  63 NE5       30.10S
BROKEN BOW     MOSUNNY   78  68  71 N8        30.09S
O`NEILL        PTSUNNY   77  66  68 N5        30.07F
ORD            CLOUDY    74  66  76 E8        30.07R
THEDFORD       MOSUNNY   82  66  58 NE8       30.12S
$$

NEZ041-046>049-061>064-073>077-083>087-122100-
SOUTH CENTRAL NEBRASKA

CITY           SKY/WX    TMP DP  RH WIND       PRES   REMARKS
GRAND ISLAND   CLOUDY    79  69  71 NE12      30.05R
AURORA         MOSUNNY   81  71  72 N6        30.03S
HASTINGS       MOSUNNY   82  68  62 N12       30.03S
HEBRON         SUNNY     95  67  39 SW6       29.97S HX  99
HOLDREGE       MOSUNNY   79  68  67 NE12G18   30.06S
KEARNEY *      CLOUDY    79  68  69 N10       30.07R
YORK           PTSUNNY   82  73  74 N12G21    30.01F
$$

NEZ011>018-030>034-042>045-122100-
NORTHEAST NEBRASKA

CITY           SKY/WX    TMP DP  RH WIND       PRES   REMARKS
NORFOLK        CLOUDY    73  67  81 NE5       30.04R
ALBION         PTSUNNY   74  66  75 NE7       30.06S
BLAIR          PTSUNNY   80  64  58 N14       30.00S
FREMONT        PTSUNNY   82  71  70 N10       30.01S
TEKAMAH        CLOUDY    77  69  76 N13       30.01S
WAYNE          CLOUDY    74  69  85 NE9       30.04S
$$

NEZ050>053-065>068-078-088>093-122100-
SOUTHEAST NEBRASKA

CITY           SKY/WX    TMP DP  RH WIND       PRES   REMARKS
LINCOLN        SUNNY     91  69  48 W7        29.98S HX  96
OMAHA EPPLEY   PTSUNNY   85  73  67 N15       29.97R HX  91
BEATRICE       SUNNY     90  70  51 SW9       29.97S HX  95
FALLS CITY     SUNNY     95  71  45 S14       29.95F HX 102
NEBRASKA CITY  SUNNY     91  71  52 SW8       29.96F HX  96
PLATTSMOUTH    MOSUNNY   88  69  54 W6        29.97S HX  92
$$

NEZ044-045-051>053-067-122100-
OMAHA AREA

CITY           SKY/WX    TMP DP  RH WIND       PRES   REMARKS
OMAHA EPPLEY   PTSUNNY   85  73  67 N15       29.97R HX  91
BLAIR          PTSUNNY   80  64  58 N14       30.00S
FREMONT        PTSUNNY   82  71  70 N10       30.01S
MILLARD        PTSUNNY   87  73  64 N6        29.96S HX  94
PLATTSMOUTH    MOSUNNY   88  69  54 W6        29.97S HX  92
WAHOO          MOCLDY    84  71  63 N12       29.99S
$$



USA.gov is the U.S. government's official web portal to all federal, state and local government web resources and services.